GW1599 Weather Reports


time (UTC)temp
C
wind
direction
speed
KPH
gust
KPH
rain 1hr
cm
rain 24hr
cm
rain mn
cm
humidity
%
barometer
mb
20260510164545 23 150 3.2 4.8 0.00 0.00 0.00 65 1015.2
20260510163944 22 151 1.6 8.0 0.00 0.00 0.00 68 1015.2
20260510162724 21 134 3.2 4.8 0.00 0.00 0.00 69 1015.2
20260510161529 21 355 1.6 3.2 0.00 0.00 0.00 73 1015.2
20260510160950 22 355 1.6 3.2 0.00 0.00 0.00 71 1015.2
20260510155736 22 20 0.0 3.2 0.00 0.00 0.00 68 1015.5
20260510155150 22 184 0.0 8.0 0.00 0.00 0.00 64 1015.5
20260510154523 23 138 1.6 3.2 0.00 0.00 0.00 60 1015.5
20260510153949 23 235 0.0 12.9 0.00 0.00 0.00 60 1015.2
20260510153322 23 209 3.2 6.4 0.00 0.00 0.00 59 1014.9
20260510152733 23 225 3.2 4.8 0.00 0.00 0.00 61 1014.9
20260510152149 23 219 3.2 8.0 0.00 0.00 0.00 60 1014.9
20260510151535 23 139 3.2 4.8 0.00 0.00 0.00 61 1014.9
20260510150914 23 203 1.6 8.0 0.00 0.00 0.00 62 1015.2
20260510150339 22 209 3.2 9.7 0.00 0.00 0.00 65 1015.2
20260510145717 22 165 6.4 8.0 0.00 0.00 0.00 65 1015.2
20260510145138 22 157 3.2 8.0 0.00 0.00 0.00 63 1015.2
20260510144510 22 213 4.8 8.0 0.00 0.00 0.00 65 1015.2
20260510143926 22 164 3.2 6.4 0.00 0.00 0.00 68 1015.2
20260510143335 21 184 1.6 4.8 0.00 0.00 0.00 70 1015.5
20260510142713 20 161 3.2 6.4 0.00 0.00 0.00 70 1015.5
20260510142128 20 165 3.2 6.4 0.00 0.00 0.00 70 1015.9
20260510140929 20 169 1.6 4.8 0.00 0.00 0.00 70 1015.5
20260510135715 20 218 1.6 8.0 0.00 0.00 0.00 71 1015.9
20260510135116 20 188 3.2 4.8 0.00 0.00 0.00 73 1015.5
20260510134511 19 208 0.0 4.8 0.00 0.00 0.00 74 1015.5
20260510133348 18 163 3.2 3.2 0.00 0.00 0.00 78 1015.5
20260510132749 18 191 1.6 3.2 0.00 0.00 0.00 77 1015.5
20260510131517 16 152 1.6 4.8 0.00 0.00 0.00 87 1015.5
20260510130920 16 132 1.6 4.8 0.00 0.00 0.00 92 1015.5
20260510130331 15 135 0.0 0.0 0.00 0.00 0.00 95 1015.5
20260510125751 15 75 0.0 0.0 0.00 0.00 0.00 95 1015.5
20260510125144 14 230 0.0 0.0 0.00 0.00 0.00 97 1015.5
20260510123308 12 205 0.0 0.0 0.00 0.00 0.00 97 1015.5
20260510122729 12 238 0.0 0.0 0.00 0.00 0.00 97 1015.2
20260510122133 12 238 0.0 0.0 0.00 0.00 0.00 97 1015.2
20260510121511 11 300 0.0 0.0 0.00 0.00 0.00 97 1015.2
20260510120949 10 300 0.0 0.0 0.00 0.00 0.00 96 1015.2
20260510115743 9 245 0.0 0.0 0.00 0.00 0.00 96 1014.9
20260510114518 8 223 0.0 0.0 0.00 0.00 0.00 95 1014.9
20260510113914 8 22 0.0 0.0 0.00 0.00 0.00 94 1014.9
20260510112710 8 22 0.0 0.0 0.00 0.00 0.00 94 1014.9
20260510112131 8 22 0.0 0.0 0.00 0.00 0.00 94 1014.5
20260510111532 8 22 0.0 0.0 0.00 0.00 0.00 94 1014.5
20260510110933 8 22 0.0 0.0 0.00 0.00 0.00 93 1014.2
20260510110312 8 22 0.0 0.0 0.00 0.00 0.00 93 1014.2
20260510105747 8 22 0.0 0.0 0.00 0.00 0.00 93 1014.2
20260510105143 8 22 0.0 0.0 0.00 0.00 0.00 93 1014.2
20260510103934 8 22 0.0 0.0 0.00 0.00 0.00 93 1013.8
20260510103324 8 22 0.0 0.0 0.00 0.00 0.00 93 1013.8
20260510102717 8 22 0.0 0.0 0.00 0.00 0.00 93 1013.8
20260510102142 8 22 0.0 0.0 0.00 0.00 0.00 93 1013.8
20260510101510 8 22 0.0 0.0 0.00 0.00 0.00 93 1013.8
20260510100351 8 22 0.0 0.0 0.00 0.00 0.00 93 1013.8
20260510095710 8 22 0.0 0.0 0.00 0.00 0.00 93 1013.5
20260510095139 8 22 0.0 0.0 0.00 0.00 0.00 93 1013.5
20260510094539 8 22 0.0 0.0 0.00 0.00 0.00 93 1013.5
20260510093908 8 22 0.0 0.0 0.00 0.00 0.00 93 1013.5
20260510093327 8 22 0.0 0.0 0.00 0.00 0.00 93 1013.5
20260510092725 8 22 0.0 0.0 0.00 0.00 0.00 93 1013.5
20260510092129 8 22 0.0 0.0 0.00 0.00 0.00 93 1013.5
20260510091537 8 22 0.0 0.0 0.00 0.00 0.00 92 1013.2
20260510090909 8 22 0.0 0.0 0.00 0.00 0.00 93 1013.2
20260510090341 8 22 0.0 0.0 0.00 0.00 0.00 93 1013.2
20260510085716 8 22 0.0 0.0 0.00 0.00 0.00 93 1013.2
20260510083948 8 22 0.0 0.0 0.00 0.00 0.00 92 1013.2
20260510083352 8 22 0.0 0.0 0.00 0.00 0.00 92 1013.2
20260510082744 8 22 0.0 0.0 0.00 0.00 0.00 92 1013.2
20260510082119 8 22 0.0 0.0 0.00 0.00 0.00 92 1012.8
20260510081549 8 22 0.0 0.0 0.00 0.00 0.00 92 1012.8
20260510080918 8 22 0.0 0.0 0.00 0.00 0.00 92 1012.8
20260510080327 8 22 0.0 0.0 0.00 0.00 0.00 91 1012.8
20260510075750 9 22 0.0 0.0 0.00 0.00 0.00 91 1012.8
20260510074542 9 22 0.0 0.0 0.00 0.00 0.00 91 1012.5
20260510073942 9 22 0.0 0.0 0.00 0.00 0.00 91 1012.5
20260510073347 9 22 0.0 0.0 0.00 0.00 0.00 91 1012.5
20260510072734 9 22 0.0 0.0 0.00 0.00 0.00 91 1012.5
20260510072126 9 22 0.0 0.0 0.00 0.00 0.00 91 1012.5
20260510071546 9 22 0.0 0.0 0.00 0.00 0.00 91 1012.8
20260510070925 9 22 0.0 0.0 0.00 0.00 0.00 91 1012.8
20260510070312 9 22 0.0 0.0 0.00 0.00 0.00 91 1012.8
20260510065734 9 22 0.0 0.0 0.00 0.00 0.00 91 1012.5
20260510065141 10 22 0.0 0.0 0.00 0.00 0.00 91 1012.8
20260510063923 10 22 0.0 0.0 0.00 0.00 0.00 91 1012.8
20260510063330 10 22 0.0 0.0 0.00 0.00 0.00 91 1012.8
20260510062709 10 22 0.0 0.0 0.00 0.00 0.00 91 1012.8
20260510062146 10 22 0.0 0.0 0.00 0.00 0.00 91 1012.8
20260510061534 10 22 0.0 0.0 0.00 0.00 0.00 91 1012.8
20260510060949 10 22 0.0 0.0 0.00 0.00 0.00 90 1012.8
20260510060341 10 22 0.0 0.0 0.00 0.00 0.00 90 1012.8
20260510055725 10 22 0.0 0.0 0.00 0.00 0.00 90 1012.8
20260510055118 10 22 0.0 0.0 0.00 0.00 0.00 90 1012.8
20260510054538 10 22 0.0 0.0 0.00 0.00 0.00 90 1012.8
20260510053314 10 22 0.0 0.0 0.00 0.00 0.00 90 1012.8
20260510052149 10 22 0.0 0.0 0.00 0.00 0.00 90 1012.8
20260510051548 10 22 0.0 0.0 0.00 0.00 0.00 90 1012.8
20260510050912 10 22 0.0 0.0 0.00 0.00 0.00 90 1012.8
20260510050332 11 22 0.0 0.0 0.00 0.00 0.00 90 1012.8
20260510045721 11 22 0.0 0.0 0.00 0.00 0.00 90 1013.2
20260510045110 11 22 0.0 0.0 0.00 0.00 0.00 90 1013.2
20260510043931 11 22 0.0 0.0 0.00 0.00 0.00 89 1013.2
20260510043338 11 22 0.0 0.0 0.00 0.00 0.00 89 1013.2
20260510042711 11 22 0.0 0.0 0.00 0.00 0.00 89 1013.2
20260510042145 11 22 0.0 0.0 0.00 0.00 0.00 89 1013.2
20260510041533 11 22 0.0 0.0 0.00 0.00 0.00 89 1013.2
20260510040924 11 22 0.0 0.0 0.00 0.00 0.00 89 1012.8
20260510040343 11 22 0.0 0.0 0.00 0.00 0.00 88 1013.2
20260510035747 11 22 0.0 0.0 0.00 0.00 0.00 88 1013.2
20260510035123 11 22 0.0 0.0 0.00 0.00 0.00 88 1012.8
20260510034541 12 22 0.0 0.0 0.00 0.00 0.00 88 1013.2
20260510033909 12 22 0.0 0.0 0.00 0.00 0.00 87 1012.8
20260510033316 12 22 0.0 0.0 0.00 0.00 0.00 87 1012.8
20260510032752 12 22 0.0 0.0 0.00 0.00 0.00 87 1012.8
20260510032147 12 22 0.0 0.0 0.00 0.00 0.00 87 1012.8
20260510031524 12 22 0.0 0.0 0.00 0.00 0.00 87 1012.8
20260510030919 12 22 0.0 0.0 0.00 0.00 0.00 86 1012.5
20260510030328 12 22 0.0 0.0 0.00 0.00 0.00 86 1012.8
20260510025732 13 22 0.0 0.0 0.00 0.00 0.00 86 1012.5
20260510025122 13 22 0.0 0.0 0.00 0.00 0.00 85 1012.5
20260510023940 13 22 0.0 0.0 0.00 0.00 0.00 84 1012.5
20260510022739 13 22 0.0 0.0 0.00 0.00 0.00 84 1012.5
20260510021510 14 22 0.0 0.0 0.00 0.00 0.00 82 1012.1
20260510020952 14 22 0.0 0.0 0.00 0.00 0.00 82 1011.8
20260510015740 15 22 0.0 0.0 0.00 0.00 0.00 81 1011.8
20260510015143 15 22 0.0 0.0 0.00 0.00 0.00 81 1011.8
20260510014511 15 22 0.0 0.0 0.00 0.00 0.00 80 1011.5
20260510013946 15 22 0.0 0.0 0.00 0.00 0.00 79 1011.5
20260510012725 16 22 0.0 0.0 0.00 0.00 0.00 78 1011.5
20260510012131 16 22 0.0 0.0 0.00 0.00 0.00 78 1011.5
20260510011556 16 22 0.0 0.0 0.00 0.00 0.00 77 1011.1
20260510010951 17 22 0.0 0.0 0.00 0.00 0.00 76 1011.1
20260510010348 17 22 0.0 0.0 0.00 0.00 0.00 75 1011.1
20260510005143 17 22 0.0 0.0 0.00 0.00 0.00 73 1011.1
20260510004550 17 22 0.0 0.0 0.00 0.00 0.00 73 1010.8
20260510003307 18 22 0.0 0.0 0.00 0.00 0.00 71 1010.8
20260510002716 18 22 0.0 0.0 0.00 0.00 0.00 70 1010.4
20260510001511 18 32 0.0 0.0 0.00 0.00 0.00 69 1010.4
20260510000943 18 32 0.0 1.6 0.00 0.00 0.00 69 1010.4
20260510000349 18 32 0.0 3.2 0.00 0.00 0.00 69 1010.4
20260509235710 19 160 0.0 0.0 0.00 0.00 0.00 69 1010.4
20260509235126 19 160 0.0 1.6 0.00 0.00 0.00 69 1010.4
20260509234543 19 182 1.6 3.2 0.00 0.00 0.00 68 1010.4
20260509233949 19 285 1.6 1.6 0.00 0.00 0.00 68 1010.4
20260509233339 20 289 1.6 4.8 0.00 0.00 0.00 67 1010.4
20260509232130 20 290 0.0 4.8 0.00 0.00 0.00 67 1010.4
20260509231509 20 216 6.4 11.3 0.00 0.00 0.00 66 1010.4
20260509230951 20 240 4.8 8.0 0.00 0.00 0.00 67 1010.1
20260509230332 20 259 0.0 0.0 0.00 0.00 0.00 65 1010.1
20260509225146 20 227 1.6 6.4 0.00 0.00 0.00 66 1010.4
20260509224535 20 203 3.2 4.8 0.00 0.00 0.00 64 1010.1
20260509223928 20 235 4.8 4.8 0.00 0.00 0.00 65 1010.1
20260509223343 20 215 1.6 6.4 0.00 0.00 0.00 65 1010.1
20260509222130 20 173 3.2 8.0 0.00 0.00 0.00 63 1010.1
20260509220917 20 197 1.6 8.0 0.00 0.00 0.00 63 1010.4
20260509220325 20 195 3.2 6.4 0.00 0.00 0.00 62 1010.4
20260509215723 21 217 0.0 4.8 0.00 0.00 0.00 62 1010.4
20260509215134 21 213 4.8 8.0 0.00 0.00 0.00 62 1010.4
20260509214520 21 229 1.6 8.0 0.00 0.00 0.00 63 1010.4
20260509213334 21 168 8.0 9.7 0.00 0.00 0.00 61 1010.4
20260509212738 21 174 8.0 11.3 0.00 0.00 0.00 60 1010.1
20260509212145 21 81 8.0 8.0 0.00 0.00 0.00 60 1010.4
20260509211542 21 240 3.2 9.7 0.00 0.00 0.00 60 1010.4
20260509210931 21 185 3.2 16.1 0.00 0.00 0.00 61 1010.4
20260509210318 21 215 3.2 8.0 0.00 0.00 0.00 64 1010.4
20260509205747 21 242 4.8 6.4 0.00 0.00 0.00 64 1010.4
20260509205134 21 136 3.2 6.4 0.00 0.00 0.00 64 1010.4
20260509204537 21 217 3.2 6.4 0.00 0.00 0.00 63 1010.4
20260509203950 21 185 1.6 11.3 0.00 0.00 0.00 62 1010.1
20260509203321 21 206 3.2 9.7 0.00 0.00 0.00 61 1010.1
20260509202753 21 141 3.2 8.0 0.00 0.00 0.00 61 1010.1
20260509202126 21 158 1.6 11.3 0.00 0.00 0.00 60 1010.1
20260509201532 22 233 8.0 9.7 0.00 0.00 0.00 60 1010.1
20260509200939 21 196 4.8 11.3 0.00 0.00 0.00 63 1010.1
20260509200309 21 160 6.4 6.4 0.00 0.00 0.00 62 1010.1
20260509195125 21 155 3.2 12.9 0.00 0.00 0.00 60 1010.1
20260509193915 22 221 4.8 11.3 0.00 0.00 0.00 60 1010.4
20260509193337 22 223 1.6 8.0 0.00 0.00 0.00 62 1010.4
20260509192748 22 217 6.4 9.7 0.00 0.00 0.00 63 1010.4
20260509191527 21 204 4.8 9.7 0.00 0.00 0.00 63 1010.4
20260509190313 22 180 3.2 11.3 0.00 0.00 0.00 62 1010.4
20260509185750 22 144 4.8 16.1 0.00 0.00 0.00 59 1010.4
20260509185114 22 215 3.2 8.0 0.00 0.00 0.00 62 1010.4
20260509184531 21 185 3.2 9.7 0.00 0.00 0.00 63 1010.4
20260509183936 21 171 3.2 9.7 0.00 0.00 0.00 62 1010.4
20260509183343 21 219 9.7 9.7 0.00 0.00 0.00 66 1010.4
20260509182727 20 233 4.8 12.9 0.00 0.00 0.00 65 1010.4
20260509182153 20 208 4.8 9.7 0.00 0.00 0.00 65 1010.4
20260509181515 19 207 0.0 6.4 0.00 0.00 0.00 67 1010.4
20260509180942 19 228 3.2 6.4 0.00 0.00 0.00 66 1010.8
20260509180315 19 148 6.4 6.4 0.00 0.00 0.00 68 1010.8
20260509175737 19 160 1.6 8.0 0.00 0.00 0.00 70 1010.8
20260509175152 19 158 8.0 9.7 0.00 0.00 0.00 67 1010.8
20260509174526 19 133 6.4 9.7 0.00 0.00 0.00 67 1010.8
20260509173310 18 198 1.6 6.4 0.00 0.00 0.00 67 1011.1
20260509172726 18 184 4.8 11.3 0.00 0.00 0.00 68 1011.1
20260509171510 18 205 4.8 6.4 0.00 0.00 0.00 67 1011.1
20260509170921 18 155 4.8 8.0 0.00 0.00 0.00 66 1011.1
20260509170323 18 194 3.2 12.9 0.00 0.00 0.00 66 1011.1
20260509165719 18 167 4.8 6.4 0.00 0.00 0.00 66 1011.1
20260509165132 18 249 3.2 8.0 0.00 0.00 0.00 67 1011.1